sat.trackr.live / text

‹ back to catalog

JCSAT-16

NORAD 41729 · 2016-050A

PAYLOAD ACTIVE UNKNOWN

§ Identity

Operator
Country
JPN
Launch date
2016-08-14
Launch site
AFETR
Launch vehicle
Mass (kg)
RCS (m²)
18.90

Purposes: comms

External: N2YO · Heavens-Above · Gunter

§ Orbital elements

Epoch: 2026-09-19T08:37:10.897824Z

Period
1,436.08 min
Inclination
0.0177°
Eccentricity
0.0000887
Mean motion
1.00273039 rev/d
Perigee alt
35,782.5 km
Apogee alt
35,790.0 km
Semi-major
42,164.4 km
B*
0.0000e+0
RAAN
169.1246°
Arg perigee
350.8663°
Mean anomaly
111.5445°
Rev number
3,701

§ Raw data

JCSAT-161 41729U 16050A   26262.35915391 -.00000255  00000+0  00000+0 0  99902 41729   0.0177 169.1246 0000887 350.8663 111.5445  1.00273039 37010

JSON: /api/v1/satellites/41729 · /tle

For live sub-satellite position, see the globe view (requires WebGL).

§ Visibility from observer

Set your observer location to see the next 7 days of passes ≥ 10°. The values pass through the URL so the page stays shareable.

No JS? Fill the form by hand. The geolocation button needs JavaScript.